Location: Lombray
(49.5154°N, 3.1089°E)
Time: 11:09:38
(UTC+00:00)

Cosmos 2026 Rocket - Pass Details

Date: 15 May 2026
Orbit: 939 x 999 km, 82.9° (Epoch: 8 June)

Event Time Altitude Azimuth Distance (km) Brightness Sun altitude
Rises 22:29:27 0° 347° (NNW) 3,731 8.7 -19.5°
Reaches altitude 10° 22:32:02 10° 344° (NNW) 2,779 7.6 -19.6°
Maximum altitude 22:38:15 56° 268° (W) 1,178 4.5 -19.9°
Enters shadow 22:41:40 27° 202° (SSW) 1,821 5.0 -20.1°
